This demonstration page uses our WeatherBlox Daily Observations layout. Learn more.

Left ArrowRight Arrow

Hourly Observations for October 2, 2015

Temp ( °F °C ) Dew Point ( °F °C ) Humidity (%) Winds ( mph kmh ) Pressure ( in mb ) Visibility ( mi km ) Precip ( " mm )
12:53 am 00:53 Cloudy 58 14.4 49 9.4 72 72 NE 12 19 30.14 1021 10 16 0.00 0.00
1:53 am 01:53 Mostly Clear 57 13.9 49 9.4 74 74 NNE 9 15 30.12 1020 10 16 0.00 0.00
2:53 am 02:53 Mostly Cloudy 58 14.4 49 9.4 72 72 NNE 9 15 30.10 1019 10 16 0.00 0.00
3:53 am 03:53 Mostly Clear 57 13.9 48 8.9 72 72 NE 12 19 30.10 1019 10 16 0.00 0.00
4:53 am 04:53 Mostly Clear 57 13.9 48 8.9 72 72 NNE 12 19 30.10 1019 10 16 0.00 0.00
5:53 am 05:53 Clear 55 12.8 47 8.3 74 74 NNE 13 20 30.11 1020 10 16 0.00 0.00
6:09 am 06:09 Mostly Cloudy 55 12.8 46 7.8 72 72 NE 10 17 30.12 1020 10 16 0.00 0.00
6:53 am 06:53 Mostly Cloudy 53 11.7 45 7.2 74 74 NE 10 17 30.11 1020 10 16 0.00 0.00
7:10 am 07:10 Partly Cloudy 53 11.7 45 7.2 74 74 NE 8 13 30.12 1020 10 16 0.00 0.00
7:53 am 07:53 Sunny 52 11.1 45 7.2 77 77 NNE 7 11 30.12 1020 10 16 0.00 0.00
8:53 am 08:53 Mostly Sunny 52 11.1 44 6.7 75 75 NNE 13 20 30.13 1020 10 16 0.00 0.00
9:53 am 09:53 Sunny 53 11.7 44 6.7 72 72 NE 10 17 30.13 1020 10 16 0.00 0.00
10:53 am 10:53 Mostly Cloudy 54 12.2 44 6.7 69 69 NE 10 17 30.14 1021 10 16 0.00 0.00
11:53 am 11:53 Cloudy 56 13.3 44 6.7 65 65 NE 12 19 30.13 1020 10 16 0.00 0.00
12:53 pm 12:53 Mostly Cloudy 58 14.4 44 6.7 60 60 NE 14 22 30.12 1020 10 16 0.00 0.00
1:53 pm 13:53 Cloudy 60 15.6 44 6.7 56 56 NE 17 28 30.11 1020 10 16 0.00 0.03
2:53 pm 14:53 Cloudy with Light Rain 60 15.6 43 6.1 53 53 ENE 18 30 30.10 1019 10 16 0.00 0.03
3:53 pm 15:53 Cloudy with Light Rain 60 15.6 43 6.1 53 53 ENE 21 33 30.09 1019 10 16 0.00 0.03
4:53 pm 16:53 Cloudy with Light Rain 58 14.4 43 6.1 58 58 ENE 16 26 30.09 1019 10 16 0.00 0.03
5:53 pm 17:53 Cloudy 56 13.3 42 5.6 60 60 NE 9 15 30.09 1019 10 16 0.01 0.25
6:53 pm 18:53 Cloudy with Light Rain 55 12.8 41 5 59 59 NE 12 19 30.11 1020 10 16 0.00 0.03
7:53 pm 19:53 Cloudy with Light Rain 52 11.1 42 5.6 69 69 NE 10 17 30.11 1020 10 16 0.03 0.76
8:53 pm 20:53 Cloudy with Light Rain 51 10.6 45 7.2 80 80 ENE 6 9 30.11 1020 10 16 0.03 0.76
9:53 pm 21:53 Cloudy with Light Rain 51 10.6 45 7.2 80 80 E 10 17 30.11 1020 9 14 0.01 0.25
10:24 pm 22:24 Cloudy with Rain 49 9.4 46 7.8 90 90 E 10 17 30.12 1020 4 6 0.02 0.51

Powered by AerisWeather